Regional Weather Roundup
Issued by NWS

Home | Current Version | Previous Version | Text Only | Print | Product List | Glossary Off
Versions: 1 2 3 4 5 6 7 8 9 10 11 12 13 14 15 16 17 18 19 20 21 22 23 24 25 26 27 28 29 30 31 32 33 34 35 36 37 38 39 40 41 42 43 44 45 46 47 48 49 50

000
ASUS43 KDTX 050501
RWRMI
MICHIGAN HOURLY REGIONAL WEATHER ROUNDUP
NATIONAL WEATHER SERVICE DETROIT/PONTIAC MI
100 AM EDT SAT SEP 05 2015

NOTE: "FAIR" INDICATES FEW OR NO CLOUDS BELOW 12,000 FEET WITH NO
SIGNIFICANT WEATHER AND/OR OBSTRUCTION TO VISIBILITY.

MIZ047>049-052>055-059>063-066>070-074>076-081>083-050600-
SOUTHEAST LOWER MICHIGAN

CITY           SKY/WX    TMP DP  RH WIND       PRES   REMARKS
ADRIAN         PTCLDY    69  67  93 SW6       30.09S
ALMA           FOG       66  66  99 CALM      30.08S VSB 1/4
ANN ARBOR      FOG       65  64  97 CALM      30.07S VSB 1/4
BAD AXE        CLOUDY    70  68  94 CALM      30.09S
CARO           CLOUDY    69  69 100 CALM      30.07S FOG
DETROIT CITY   CLEAR     71  68  90 S3        30.07S
DETROIT        PTCLDY    70  69  97 E5        30.07S FOG
FLINT          PTCLDY    73  68  84 CALM      30.07S
GROSSE ILE     CLEAR     73  70  88 S8        30.06S
HILLSDALE      MOCLDY    70  70 100 S3        30.09S FOG
HOWELL         PTCLDY    68  67  96 CALM      30.07F FOG

CITY           SKY/WX    TMP DP  RH WIND       PRES   REMARKS
JACKSON        CLOUDY    66  65  96 CALM      30.08S FOG
LAMBERTVILLE   FAIR      70  66  87 S5        30.08F
LANSING        PTCLDY    67  65  93 CALM      30.07F FOG
LAPEER         FAIR      68  67  97 CALM      30.08S
MASON          FOG       66  64  92 CALM      30.08S VSB 3/4
MONROE         PTCLDY    68  67  94 CALM      30.06F
MT. CLEMENS    PTCLDY    71  69  94 S2        30.05F
PONTIAC        PTCLDY    69  67  93 CALM        N/A
PORT HOPE        N/A     72  65  78 S8        30.07S
PORT HURON     PTCLDY    70  68  94 CALM      30.08F
TRI CITIES     CLOUDY    70  68  93 CALM      30.07S FOG
MIDLAND        FOG       68  68  98 CALM      30.06S VSB 1/4
TROY           CLEAR     72  69  91 CALM      30.09S
SAGINAW HB     CLOUDY    70  68  94 CALM      30.06S FOG
$$
MIZ043>046-050>051-056>058-064>065-071>073-077>080-050600-
SOUTHWEST LOWER MICHIGAN

CITY           SKY/WX    TMP DP  RH WIND       PRES   REMARKS
BATTLE CREEK   PTCLDY    68  65  90 CALM      30.08S
BENTON HARBOR  MOCLDY    66  64  93 CALM      30.06S FOG
BIG RAPIDS     FOG       67  66  99 CALM      30.07S VSB 1/4
COLDWATER      MOCLDY    70  70 100 CALM      30.08S FOG
FREMONT        FOG       64  64 100 CALM      30.06S VSB 1/4
HOLLAND        FOG       64  61  90 CALM      30.07S VSB 1/4
GRAND RAPIDS   PTCLDY    68  67  96 CALM      30.07S
IONIA          FAIR      65  65 100 CALM      30.07S FOG
KALAMAZOO      MOCLDY    68  65  90 CALM      30.08S
LUDINGTON      FOG       67  65  93 CALM      30.06S VSB 1/4
MARSHALL       MOCLDY    66  66  97 CALM      30.07S FOG
MOUNT PLEASANT FOG       71  69  94 CALM      30.06F VSB 3/4
MUSKEGON       CLEAR     66  63  90 CALM      30.06S
SOUTH HAVEN    CLEAR     64  62  95 CALM      30.07S FOG
$$
MIZ016>042-050600-
NORTHERN LOWER MICHIGAN

CITY           SKY/WX    TMP DP  RH WIND       PRES   REMARKS
ALPENA         PTCLDY    68  65  90 E6        30.09S
BEAVER ISLAND  CLOUDY    68  67  96 NE3       30.07F FOG
BELLAIRE       FOG       66  65  96 CALM      30.06F VSB 1/2
CADILLAC       FOG       65  65  97 CALM      30.08S VSB 1
CHARLEVOIX     CLOUDY    70  69  96 SE5       30.09F
FRANKFORT      CLOUDY    69  68  96 CALM      30.05R
GAYLORD        CLOUDY    68  68 100 CALM      30.10S FOG
GRAYLING       CLOUDY    67  67  98 CALM      30.09F FOG
HARBOR SPRINGS CLOUDY    69  66  89 NE5       30.08S
HOUGHTON LAKE  CLOUDY    69  67  93 CALM      30.08F FOG
MANISTEE       CLOUDY    64  63  94 CALM      30.06S VSB 1/4
OSCODA         PTCLDY    71  66  84 SE10      30.06F
ROGERS CITY    PTCLDY    71  64  79 SE5       30.10S
TRAVERSE CITY  CLOUDY    71  68  90 CALM      30.04F
$$
MIZ007>008-015-050600-
EASTERN UPPER MICHIGAN

CITY           SKY/WX    TMP DP  RH WIND       PRES   REMARKS
KINROSS        CLOUDY    72  63  73 E12       30.10S
MACKINAC ISLAN MOCLDY    68  63  83 E13G18    30.08F
NEWBERRY       CLOUDY    68  64  86 E5        30.09F
S. S. MARIE    CLEAR     68  63  84 E3        30.10F
$$
MIZ004>006-011>014-085-050600-
CENTRAL UPPER MICHIGAN

CITY           SKY/WX    TMP DP  RH WIND       PRES   REMARKS
MANISTIQUE     CLOUDY    68  66  92 E6        30.06F
ESCANABA       MOCLDY    64  64 100 N3        30.05R
MENOMINEE      CLOUDY    66  63  88 CALM      30.05S
SAWYER-GWINN   CLOUDY    67  65  91 SW5       30.09R
$$
MIZ001>003-009>011-084-050600-
WESTERN UPPER MICHIGAN

CITY           SKY/WX    TMP DP  RH WIND       PRES   REMARKS
IRON MOUNTAIN  PTCLDY    63  62  97 CALM      30.07S
HOUGHTON       CLEAR     62  60  93 CALM      30.06R
COPPER HARBOR    N/A     69  63  81 VRB7      30.04S
IRONWOOD       CLEAR     72  66  83 S5        30.00R
$$

ABBREVIATIONS USED IN REMARKS
   TC - TEMPERATURE IN CELSIUS
  WCI - WIND CHILL INDEX
   HX - HEAT INDEX
  VSB - VISIBILITY




USA.gov is the U.S. government's official web portal to all federal, state and local government web resources and services.